Saint Simons Island, GA

9:55 AM EST on February 19, 2017 (GMT -0500)
McKinnon

Weather History for KSSI - August, 2013

Change the Weather History Date:

Saturday, August 24, 2013

  Actual Average Record
Temperature  
Mean Temperature 80 °F 81 °F  
Max Temperature 85 °F 88 °F 97 °F (2002)
Min Temperature 74 °F 75 °F 65 °F (1957)
Degree Days  
Heating Degree Days 0 0  
Month to date heating degree days 0 0  
Since 1 June heating degree days 0 0  
Since 1 July heating degree days 0 0  
Cooling Degree Days 15 16  
Month to date cooling degree days 424 412  
Year to date cooling degree days 1835 1866  
Since 1 June cooling degree days 1434 1424  
Growing Degree Days 30 (Base 50)    
Moisture  
Dew Point 73 °F    
Average Humidity 78    
Maximum Humidity 94    
Minimum Humidity 61    
Precipitation  
Precipitation 0.15 in 0.24 in 2.33 in (1954)
Month to date precipitation 6.78 4.60  
Year to date precipitation 33.82 28.44  
Snow  
Snow 0.00 in - 0.00 in ()
Month to date snowfall 0.0  
Since 1 June snowfall 0.0  
Since 1 July snowfall 0.0  
Snow Depth 0.00 in    
Sea Level Pressure  
Sea Level Pressure 30.12 in    
Wind  
Wind Speed 6 mph (NE)    
Max Wind Speed 20 mph    
Max Gust Speed 25 mph    
Visibility 9 miles    
Events Rain , Thunderstorm    
T = Trace of Precipitation, MM = Missing Value Source: NWS Daily Summary

Daily Weather History Graph

Daily Weather History Graph

Search for Another Location

Airport or City:

Trip Planner

Search our weather history database for the weather conditions in past years. The results will help you decide how hot, cold, wet, or windy it might be!

Date:

Astronomy

Aug. 24, 2013 Rise Set
Actual Time 6:57 AM EDT 7:58 PM EDT
Civil Twilight 6:31 AM EDT 8:23 PM EDT
Nautical Twilight 6:02 AM EDT 8:52 PM EDT
Astronomical Twilight 5:31 AM EDT 9:23 PM EDT
Moon 10:12 PM EDT (8/24) 10:35 AM EDT (8/24)
Length of Visible Light 13h 51m
Length of Day
13h 01m
Waning Gibbous, 84% of the Moon is Illuminated
Aug 24
Waning Gibbous
Aug 28
Last Quarter
Sep 5
New
Sep 12
First Quarter
Sep 19
Full

Hourly Weather History & Observations

Time (EDT) Temp. Heat Index Dew Point Humidity Pressure Visibility Wind Dir Wind Speed Gust Speed Precip Events Conditions
12:53 AM 77.0 °F - 75.0 °F 94% 30.05 in 10.0 mi Calm Calm - N/A   Clear
1:53 AM 77.0 °F - 75.0 °F 94% 30.05 in 10.0 mi Calm Calm - N/A   Clear
2:53 AM 75.9 °F - 73.0 °F 91% 30.04 in 10.0 mi West 4.6 mph - N/A   Clear
3:53 AM 75.9 °F - 73.0 °F 91% 30.04 in 10.0 mi Calm Calm - N/A   Clear
4:53 AM 75.9 °F - 73.0 °F 91% 30.05 in 10.0 mi Calm Calm - N/A   Clear
5:53 AM 75.0 °F - 72.0 °F 90% 30.07 in 10.0 mi NNW 4.6 mph - N/A   Scattered Clouds
6:53 AM 75.0 °F - 71.1 °F 87% 30.08 in 10.0 mi NNW 4.6 mph - N/A   Mostly Cloudy
7:53 AM 75.9 °F - 71.1 °F 85% 30.09 in 10.0 mi NNW 5.8 mph - N/A   Mostly Cloudy
8:53 AM 77.0 °F - 71.1 °F 82% 30.11 in 10.0 mi NNW 4.6 mph - N/A   Clear
9:53 AM 80.1 °F 83.6 °F 71.1 °F 74% 30.12 in 10.0 mi NNW 5.8 mph - N/A   Clear
10:53 AM 81.0 °F 84.4 °F 70.0 °F 69% 30.14 in 10.0 mi North 5.8 mph - N/A   Clear
11:53 AM 81.0 °F 84.4 °F 70.0 °F 69% 30.14 in 10.0 mi NNE 4.6 mph - N/A   Clear
12:53 PM 82.0 °F 86.3 °F 71.1 °F 69% 30.14 in 10.0 mi NNE 4.6 mph - 0.00 in   Overcast
1:53 PM 82.0 °F 85.9 °F 70.0 °F 67% 30.13 in 10.0 mi ENE 5.8 mph - 0.00 in   Clear
2:53 PM 82.9 °F 87.0 °F 70.0 °F 65% 30.14 in 10.0 mi East 5.8 mph - N/A   Clear
3:53 PM 84.0 °F 88.4 °F 70.0 °F 63% 30.11 in 10.0 mi ENE 9.2 mph - N/A   Clear
4:53 PM 84.9 °F 90.7 °F 72.0 °F 65% 30.12 in 10.0 mi ENE 10.4 mph - N/A   Clear
5:53 PM 81.0 °F 85.8 °F 73.0 °F 77% 30.11 in 5.0 mi East 6.9 mph - 0.03 in Rain Rain
6:53 PM 80.1 °F 84.5 °F 73.9 °F 81% 30.11 in 10.0 mi East 4.6 mph - 0.00 in   Partly Cloudy
7:53 PM 79.0 °F - 75.9 °F 90% 30.12 in 10.0 mi Calm Calm - 0.00 in   Mostly Cloudy
8:53 PM 78.1 °F - 75.0 °F 90% 30.13 in 10.0 mi North 6.9 mph - 0.00 in   Overcast
9:53 PM 77.0 °F - 73.0 °F 88% 30.15 in 10.0 mi NNE 9.2 mph - 0.00 in Rain Light Rain
10:41 PM 77.0 °F - 75.2 °F 94% 30.16 in 2.5 mi East 8.1 mph - 0.10 in Rain , Thunderstorm Rain
10:49 PM 78.8 °F - 75.2 °F 89% 30.16 in 4.0 mi East 11.5 mph - 0.10 in Rain , Thunderstorm Light Rain
10:50 PM 77.0 °F - 75.0 °F 94% 30.16 in 5.0 mi East 11.5 mph - 0.10 in Rain , Thunderstorm Light Rain
11:00 PM 77.0 °F - 73.4 °F 89% 30.17 in 10.0 mi East 15.0 mph - 0.00 in   Overcast
11:16 PM 77.0 °F - 73.4 °F 89% 30.17 in 8.0 mi East 11.5 mph - 0.00 in Rain Light Rain
11:36 PM 78.8 °F - 73.4 °F 83% 30.17 in 8.0 mi ENE 9.2 mph - 0.00 in Rain Light Rain
11:53 PM 77.0 °F - 73.0 °F 88% 30.17 in 8.0 mi ESE 9.2 mph 16.1 mph 0.00 in   Overcast